Weather in Novaya Sharapovka

Russia / Omsk Oblast     54°58′52″N   72°46′47″E
temp.,
°C
wind,
m/s
gust,
m/s
humid.,
%
clouds,
%
prec.,
mm/h
press.,
hPa
HPBL,
m
17 april, sat
sat1700:00+3nne510815 0.0 1025506
03:000nne59845 0.0 1026378
06:00−1nne36835 0.0 1027320
09:000nne33605 0.0 1028599
12:00+3nnw22430 0.0 1027919
15:00+6w23344 0.0 10261232
18:00+6wsw45353 0.0 10241443
21:00+4sw345549 0.0 102250
18 april, sun
sun1800:00+3sw376789 0.0 1020126
03:00+2sw511755 0.0 1016208
06:00+2sw51379100 0.0 1014257
09:00+6wsw71467100 0.0 1011637
12:00+9w101451100 0.1 10091977
15:00+4nw101461100 0.4 10121289
18:000nnw11145682 0.4 10171488
21:00−4n914575 0.0 10221314
19 april, mon
mon1900:00−5n812525 0.0 10251175
03:00−7n79495 0.0 10281136
06:00−8nnw684949 0.0 10301124
09:00−6n674291 0.0 10321335
12:00−4n6733100 0.0 10321762
15:00−2n6730100 0.0 10322139
18:00−2n6731100 0.0 10332117
21:00−4n254377 0.0 1034176
20 april, tue
tue2000:00−4n24475 0.0 1034146
03:00−4nnw22480 0.0 103497
06:00−5wnw23495 0.0 103470
09:00−2w453317 0.0 10341022
12:00+1wnw67275 0.0 10321551
15:00+4w79285 0.0 10291748
18:00+5w7113983 0.0 10271795
21:00+3w61350100 0.0 1026462
21 april, wed
wed2100:00+2w71557100 0.0 1023489
03:00+2w71664100 0.0 1021427
06:00+1wnw61373100 0.0 1021468
09:00+2nnw61188100 0.3 1023960
12:00+5n71157100 0.3 10231627
15:00+6n10124193 0.0 10252024
18:00+5nne8114363 0.0 10292119
21:00+1nne711584 0.0 1033786